Location: Cabeza de los Veneras
(40.2000°N, 5.2000°W)
Time: 05:41:58
(UTC+00:00)

BlueWalker 3 - Pass Details

Date: 03 July 2024
Orbit: 480 x 491 km, 53.2° (Epoch: 21 July)

Event Time Altitude Azimuth Distance (km) Brightness Sun altitude
Rises 23:57:27 0° 299° (WNW) 2,537 6.0 -26.5°
Reaches altitude 10° 23:59:54 10° 285° (WNW) 1,653 4.8 -26.6°
Enters shadow 23:59:59 10° 284° (WNW) 1,625 4.7 -26.6°
